Location: St. Malo Provincial Park
(49.3214°N, 96.9305°W)
Time: 04:52:50
(UTC-05:00)

Daily predictions for brighter satellites

Satellite Brightness Start Highest point End
(mag) Time Altitude Azimuth Time Altitude Azimuth Time Altitude Azimuth
H-2A R/B 3.1 00:02:17 18° SSW 00:05:19 35° W 00:09:57 10° NNW
Kosmos-1675 4.4 00:05:32 23° SSW 00:07:57 79° SE 00:22:08 10° NE
ATLAS CENTAUR R/B 4.5 00:07:49 10° WNW 00:11:44 22° NNW 00:15:38 10° NNE
SL-8 R/B 3.6 00:09:36 10° W 00:14:28 82° S 00:19:19 10° E
Cosmos 1340 4.2 00:15:04 22° E 00:15:25 22° E 00:18:25 10° NE
Cosmos 1842 3.4 00:17:18 36° SSW 00:18:48 70° W 00:22:44 10° N
Cosmos 1707 4.2 00:20:15 23° ESE 00:20:49 24° E 00:24:00 10° NE
Cosmos 1570 Rocket 4.0 00:17:50 10° NNW 00:23:14 80° ENE 00:25:41 33° SSE
USA 238 DEB 4.4 00:23:30 29° SSE 00:26:01 37° ESE 00:32:22 10° NE
USA 238 4.4 00:23:38 28° SSE 00:26:07 37° ESE 00:32:27 10° NE
Cosmos 2221 3.6 00:23:25 10° N 00:27:25 35° ENE 00:28:56 27° ESE
Helios 1A Rocket 4.4 00:25:19 10° NE 00:28:35 23° E 00:29:04 22° ESE
Meteor 2-5 Rocket 4.4 00:27:51 29° SE 00:30:14 44° E 00:35:43 10° NNE
Cosmos-2242 3.9 00:26:28 10° NNW 00:30:38 42° W 00:32:21 29° SW
Cosmos 2084 3.3 00:30:42 10° NW 00:34:48 88° NE 00:36:09 43° SE
Cosmos 1850 Rocket 4.5 00:34:27 34° SSE 00:36:00 44° ESE 00:40:58 10° NE
H-2A R/B 2.7 00:32:54 10° NNE 00:36:39 45° E 00:37:10 42° SE
ALOS 2 2.6 00:37:44 41° SE 00:39:10 71° ENE 00:43:34 10° N
Landsat 5 3.6 00:39:58 43° SE 00:40:58 59° ENE 00:44:55 10° N
Cosmos 1943 3.9 00:36:54 11° SW 00:42:20 54° NW 00:47:56 10° NNE
COSMOS 2487 4.1 00:43:02 23° E 00:43:02 23° E 00:45:43 10° NE
ISS -1.3 00:47:29 19° E 00:47:29 19° E 00:48:34 10° ENE
COSMOS 2455 3.8 00:41:19 10° WSW 00:47:05 46° NW 00:52:54 10° NNE
CZ-4C R/B 3.9 00:48:51 15° ESE 00:49:26 15° ESE 00:52:43 10° ENE
Cosmos 1092 Rocket 4.0 00:48:04 31° S 00:51:20 89° WNW 00:57:40 10° N
Cosmos 676 Rocket 4.4 00:48:12 22° SW 00:51:35 62° WNW 00:56:55 10° NNE
Cosmos 1953 3.8 00:51:46 10° NNW 00:55:08 26° W 00:56:19 22° WSW
Helios 1B 4.5 00:55:05 47° SSE 00:56:19 89° E 01:00:41 10° NNW
Cosmos 1544 3.5 00:53:53 10° NNW 00:57:34 51° W 00:58:10 45° SW
Cosmos 1655 Rocket 4.2 00:56:32 33° SSE 00:59:23 61° E 01:05:33 10° NNE
Cosmos 1943 Rocket 2.8 00:54:15 10° NW 00:59:26 41° WSW 01:01:19 31° SSW
Lacrosse 4 Rocket 1.9 00:58:46 27° WSW 01:00:46 56° NW 01:04:50 10° NNE
Cosmos 1733 3.1 00:57:12 10° NNW 01:01:07 83° W 01:01:47 59° S
Cosmos 1842 Rocket 4.4 00:57:28 10° NNW 01:01:32 39° W 01:02:50 31° SW
S3M 4.3 00:55:55 10° N 01:02:09 58° ENE 01:05:19 29° SE
Cosmos 1470 3.0 00:59:22 10° NNW 01:03:14 58° W 01:03:55 49° SW
Cosmos 1408 Rocket 4.3 01:02:11 34° SE 01:03:15 40° E 01:07:28 10° NNE
Lacrosse 5 rocket 3.5 00:59:58 10° WNW 01:03:37 29° N 01:07:27 10° NE
Cosmos 1023 Rocket 4.5 01:05:45 34° SSW 01:08:07 83° WNW 01:13:26 10° NNE
SL-27 R/B 3.1 01:11:31 40° W 01:12:10 47° WNW 01:15:26 10° NNE
Cosmos 1140 Rocket 3.5 01:09:59 33° SSW 01:12:24 78° WNW 01:17:41 10° NNE
Lacrosse 5 3.4 01:10:34 10° WNW 01:15:16 37° N 01:19:59 10° ENE
Cosmos 1689 Rocket 3.0 01:19:07 41° W 01:19:07 41° W 01:22:04 10° NNW
CZ-4C R/B 4.4 01:22:06 24° W 01:22:06 24° W 01:24:45 10° NW
Cosmos 2369 4.3 01:16:30 10° NNW 01:22:03 52° NE 01:26:01 19° SE
Cosmos 2369 Rocket 4.4 01:20:46 10° WNW 01:22:32 11° W 01:24:18 10° WSW
Cosmos 1656 Rocket 3.9 01:17:13 10° NW 01:22:46 54° WSW 01:24:42 37° SSW
Cosmos 1378 3.8 01:23:52 39° ESE 01:24:21 41° E 01:27:58 10° NNE
CZ-2C R/B 3.2 01:23:07 10° NNE 01:28:33 49° E 01:30:39 33° SSE
CZ-4B R/B 2.7 01:31:05 31° WSW 01:31:19 31° W 01:34:38 10° NNW
Meteor 1-16 Rocket 4.3 01:26:01 10° NNW 01:31:29 63° W 01:33:40 36° SSW
CZ-2C R/B 3.7 01:29:35 25° SE 01:32:36 54° ENE 01:38:09 10° N
Cosmos 405 Rocket 3.2 01:34:31 43° SE 01:35:05 47° E 01:38:47 10° NNE
Cosmos 1766 Rocket 3.5 01:39:29 48° S 01:40:42 85° E 01:45:13 10° N
COSMOS 2406 3.5 01:37:43 26° SW 01:40:56 66° WNW 01:46:40 10° NNE
Cosmos 2228 Rocket 3.0 01:38:08 10° N 01:42:35 86° ENE 01:43:49 47° SSE
Cosmos 2278 3.7 01:40:44 10° NNW 01:46:27 83° ENE 01:49:30 29° SSE
Cosmos 2026 Rocket 4.2 01:44:18 31° SSW 01:47:16 63° WNW 01:53:19 10° N
NOSS 3-2 (A) 3.9 01:45:04 33° S 01:47:23 48° ESE 01:53:47 10° NE
ATLAS 3B R/B 3.7 01:42:23 10° WSW 01:49:50 51° NW 01:57:01 10° NE
Cosmos 614 Rocket 4.3 01:48:09 30° SW 01:50:38 59° WNW 01:55:49 10° NNE
Cosmos 1340 4.0 01:49:58 27° WSW 01:51:01 31° WNW 01:54:29 10° N
Cosmos 1763 Rocket 3.9 01:45:49 10° NNW 01:51:08 62° ENE 01:54:20 24° SE
Cosmos 1328 Rocket 3.5 01:48:24 10° N 01:52:48 84° E 01:54:05 45° SSE
Cosmos 1980 Rocket 4.0 01:49:59 10° NNW 01:54:52 29° NE 01:59:45 10° ESE
Cosmos 1707 4.0 01:55:30 27° WSW 01:56:39 32° WNW 02:00:13 10° N
SL-8 R/B 3.8 01:52:10 10° W 01:56:51 49° SSW 01:58:02 40° SSE
SL-23 DEB 3.2 01:59:08 65° WSW 01:59:33 84° SSE 02:02:40 10° ENE
Cosmos 1515 Rocket 3.6 01:55:47 10° N 02:00:16 79° E 02:01:45 41° SSE
Helios 1A Rocket 3.9 02:00:13 10° N 02:03:59 38° WNW 02:05:24 28° WSW
Cosmos 2221 3.9 02:01:18 10° NNW 02:04:53 26° W 02:05:49 24° WSW
H-2A R/B 4.4 02:09:13 10° NNW 02:11:57 19° WNW 02:13:49 14° W
Meteor 1-24 Rocket 4.2 02:09:15 29° SW 02:12:17 56° WNW 02:18:10 10° N
Cosmos 2082 Rocket 3.2 02:11:43 24° SSE 02:14:05 34° ESE 02:19:09 10° NE
Cosmos 1076 Rocket 4.3 02:12:53 31° WSW 02:14:14 41° WNW 02:18:17 10° N
Cosmos 883 Rocket 4.5 02:08:13 10° N 02:14:37 84° W 02:18:00 30° S
USA 215 3.9 02:08:44 10° ENE 02:14:43 37° SE 02:17:13 28° S
ERS-2 4.4 02:12:27 10° NE 02:14:54 17° E 02:16:18 14° ESE
Meteor 2-2 Rocket 4.2 02:09:21 10° N 02:15:04 86° ENE 02:18:06 30° SSE
USA 238 DEB 4.1 02:10:53 16° WSW 02:16:42 65° NW 02:23:44 10° NE
USA 238 4.1 02:11:01 16° WSW 02:16:47 66° NW 02:23:50 10° NE
Cosmos 1697 Rocket 3.3 02:12:06 10° NNW 02:17:43 57° ENE 02:23:17 10° SE
COSMOS 2487 4.0 02:17:07 24° W 02:18:19 30° WNW 02:21:32 10° N
Cosmos 1607 4.2 02:17:19 22° SW 02:21:33 67° NW 02:27:45 10° NE
ISS -2.9 02:20:03 23° W 02:21:50 61° N 02:25:05 10° ENE
Cosmos 841 Rocket 3.4 02:21:41 10° NNW 02:26:57 79° WSW 02:29:39 30° SSE
Cosmos 405 4.1 02:24:56 10° N 02:28:21 40° ENE 02:30:03 24° SE
Cosmos 2315 Rocket 4.0 02:24:48 10° N 02:31:12 87° W 02:34:57 26° S
Cosmos 1833 Rocket 3.6 02:29:15 23° SSE 02:31:58 37° ESE 02:37:05 10° NE
Meteor 1-21 Rocket 4.2 02:30:58 31° SSW 02:33:50 85° W 02:39:34 10° N
NOSS 2 (F) 4.5 02:31:06 10° NW 02:33:58 82° SW 02:34:27 60° SSE
CZ-4C R/B 2.2 02:34:00 31° SSW 02:36:49 81° SE 02:43:02 10° NE
Landsat 4 3.6 02:37:29 39° SSE 02:38:48 86° ENE 02:42:34 10° NNW
Lacrosse 4 Rocket 4.2 02:38:33 10° WNW 02:40:26 13° NNW 02:42:20 10° N
Lacrosse 5 rocket 3.1 02:39:49 10° NW 02:43:46 36° NNE 02:47:54 10° E
Cosmos 1818 4.0 02:39:12 10° NW 02:44:22 43° WSW 02:46:26 30° SSW
Cosmos 1674 2.6 02:43:48 42° S 02:44:58 80° E 02:48:44 10° NNE
Cosmos 1707 Rocket 4.1 02:41:20 10° N 02:45:41 56° ENE 02:48:28 21° SSE
Timation 2 Rocket 4.2 02:42:24 27° SSW 02:46:31 90° WNW 02:53:23 10° NNE
Iridium 2 4.0 02:47:19 32° SSE 02:48:52 58° E 02:52:38 10° NNE
SL-08 R/B 3.9 02:46:26 14° SE 02:50:25 56° ENE 02:55:14 10° N
NOSS 3-2 (C) 3.5 02:46:58 26° SW 02:50:49 89° ESE 02:57:43 10° NE
SL-16 R/B 4.1 02:45:53 10° NNW 02:50:55 31° NE 02:55:53 10° ESE
Cosmos 1726 3.1 02:53:43 10° N 02:57:16 43° ENE 02:59:51 17° SE
Lacrosse 5 2.0 02:53:43 10° NW 02:58:48 79° NNE 03:03:52 10° ESE
Cosmos 1486 Rocket 4.4 02:56:19 25° SW 02:59:12 53° WNW 03:04:20 10° NNE
Cosmos 2266 Rocket 4.5 02:55:39 24° SW 02:59:21 51° WNW 03:05:37 10° N
PSLV R/B 3.7 02:55:56 10° NNE 03:00:40 86° ESE 03:03:00 29° SSW
Nadezhda 1 Rocket 4.4 02:55:17 10° N 03:01:29 61° ENE 03:07:29 10° SSE
CENTAUR R/B 3.6 02:57:54 19° SSE 03:01:37 34° ESE 03:07:40 10° NE
IRAS Rocket 4.3 03:00:52 10° NNE 03:06:24 76° ESE 03:09:50 24° S
Cosmos 2322 Rocket 3.6 03:01:10 10° NNW 03:06:29 39° NE 03:11:44 10° ESE
Cosmos 1656 3.9 03:01:08 10° NW 03:06:42 55° WSW 03:10:20 21° S
USA 161 3.6 03:05:41 11° ESE 03:07:22 19° ENE 03:09:11 10° NNE
CZ-2C R/B 4.0 03:03:45 10° N 03:08:36 31° WNW 03:12:11 16° WSW
ARIANE 5 R/B 4.5 03:06:37 10° NE 03:10:37 22° E 03:14:31 10° SE
BREEZE-M DEB (TANK) 2.6 03:02:45 10° W 03:10:42 88° N 03:13:30 10° E
CZ-2C R/B 4.4 03:10:39 21° SW 03:12:48 27° W 03:17:32 10° NW
Genesis I 3.4 03:09:58 10° NW 03:13:49 47° WSW 03:15:34 27° S
Cosmos 2344 3.8 03:08:27 21° SW 03:14:04 85° SE 03:23:25 10° NE
Cosmos 1908 4.4 03:11:28 10° NNW 03:14:46 28° W 03:15:43 25° WSW
Cosmos 1151 Rocket 4.0 03:11:07 10° NNW 03:14:54 31° W 03:16:20 25° SW
BREEZE-M TANK 3.2 03:12:03 20° SW 03:15:22 37° S 03:18:07 10° E
Cosmos 1437 Rocket 3.5 03:11:47 10° NNW 03:15:29 38° W 03:16:45 29° SW
IRS-P3 4.2 03:13:31 10° NNE 03:18:54 80° ESE 03:22:29 21° S
Cosmos 1867 3.6 03:18:02 23° SW 03:21:31 85° NW 03:27:03 10° NE
JB-3 4.5 03:22:17 10° N 03:26:20 66° WNW 03:28:27 26° SSW
COS B Rocket 3.5 03:25:51 10° NNW 03:27:54 24° W 03:27:54 24° W
ASTEX 1 4.2 03:23:22 10° N 03:28:00 39° WNW 03:30:48 21° SW
Aureole 1 Rocket 3.5 03:24:18 10° NW 03:28:19 48° WSW 03:32:00 18° S
Resurs 1-4 Rocket 4.0 03:26:26 10° NE 03:30:47 25° E 03:35:06 10° SSE
Sich 1 3.1 03:30:35 21° S 03:33:29 83° E 03:37:56 10° N
Cosmos 2151 3.8 03:34:54 22° SW 03:37:10 37° WNW 03:41:10 10° N
Cosmos 1862 Rocket 4.3 03:33:40 10° N 03:38:06 54° ENE 03:42:29 10° SSE
NOSS 3-2 (A) 4.3 03:32:26 11° WSW 03:38:17 50° NW 03:45:04 10° NE
Cosmos 1980 Rocket 2.2 03:33:44 10° NW 03:39:17 62° WSW 03:44:50 10° SSE
Cosmos 2360 Rocket 4.3 03:34:46 10° NNW 03:39:42 30° NE 03:44:36 10° ESE
Cosmos 1300 3.2 03:37:10 10° NNW 03:40:50 43° W 03:42:49 23° SSW
Cosmos 371 Rocket 3.2 03:41:54 10° NNW 03:46:48 85° WSW 03:51:38 10° SSE
Cosmos 540 Rocket 3.9 03:43:35 10° NW 03:48:27 42° WSW 03:52:28 15° S
Cosmos 2181 Rocket 4.4 03:42:48 10° N 03:48:54 64° ENE 03:55:02 10° SSE
ERS-2 2.7 03:45:22 10° N 03:48:57 45° WNW 03:51:10 20° SW
Cosmos 2242 Rocket 3.7 03:45:00 10° NNW 03:49:20 56° W 03:52:41 16° S
Cosmos 2058 3.5 03:48:30 20° SW 03:51:02 43° WNW 03:55:03 10° N
Cosmos 724 4.4 03:52:48 16° SW 03:57:28 70° NW 04:03:24 10° NE
AQUA 3.9 03:53:02 10° N 03:57:46 66° WNW 04:01:31 16° SSW
Cosmos 2082 Rocket 2.8 03:53:33 15° WSW 03:58:03 46° NW 04:03:33 10° NNE
USA 215 3.3 03:51:35 10° ENE 03:58:09 84° NNW 04:04:33 11° WSW
ISS -2.9 03:55:16 10° WNW 03:58:31 64° N 04:01:46 10° E
Cosmos 1869 3.7 03:55:26 10° N 03:59:23 63° ENE 04:03:19 10° SSE
Cosmos 1697 Rocket 3.7 03:56:36 10° NW 04:01:21 28° WSW 04:05:05 14° SSW
NPP 4.0 03:57:19 10° N 04:02:36 56° WNW 04:07:00 15° SW
Abrixas 3.4 04:01:51 21° SSW 04:03:24 34° SSE 04:06:16 10° E
CZ-2D R/B 3.1 03:59:04 10° NNE 04:04:03 44° E 04:09:04 10° S
SL-14 R/B 3.8 04:05:59 17° SW 04:08:39 42° WNW 04:12:20 10° N
Cosmos 1455 2.1 04:04:55 10° N 04:08:46 86° WSW 04:12:33 10° S
Cosmos 2360 4.4 04:05:44 10° NW 04:11:13 50° WSW 04:16:42 10° S
Spot 4 Rocket 4.0 04:06:51 10° NNE 04:12:02 85° WNW 04:17:02 11° SSW
SL-23 DEB 3.9 04:09:13 10° WNW 04:12:19 63° N 04:16:00 10° E
Cosmos 1933 4.4 04:08:34 10° N 04:12:30 47° ENE 04:16:23 10° SSE
SL-16 R/B 2.6 04:07:08 10° SSE 04:13:25 86° WSW 04:19:45 10° NNW
Cosmos 1833 Rocket 3.4 04:10:56 12° WSW 04:15:49 44° NW 04:21:14 10° NNE
Cosmos 1538 Rocket 4.4 04:15:40 10° NW 04:20:36 44° WSW 04:25:33 10° S
Cosmos 1437 4.2 04:18:31 14° WSW 04:20:45 25° WNW 04:23:38 10° NNW
Cosmos 1703 3.6 04:19:05 13° SSW 04:22:28 51° WNW 04:26:21 10° N
Cosmos 968 Rocket 3.5 04:18:16 11° SSW 04:23:07 87° WNW 04:28:18 10° NNE
Lacrosse 5 rocket 1.5 04:19:03 10° WNW 04:23:26 83° SW 04:27:59 10° SE
Cosmos 923 Rocket 4.0 04:18:58 10° NNW 04:24:18 83° WSW 04:29:33 10° SSE
Cosmos 1633 Rocket 4.1 04:22:00 13° SW 04:25:30 33° WNW 04:29:33 10° N
CZ-4C R/B 3.7 04:20:51 10° W 04:26:02 33° NNW 04:31:52 10° NE
ADEOS 3.9 04:23:21 10° N 04:28:26 54° WNW 04:33:30 10° SW
Cosmos 1726 4.0 04:30:03 10° NW 04:32:19 16° W 04:34:30 10° WSW
Cosmos 1703 Rocket 3.7 04:28:02 10° N 04:32:28 78° E 04:36:48 10° SSE
EO 1 Del DPAF 3.8 04:28:52 10° S 04:32:35 42° W 04:36:20 10° NNW
ATLAS 5 CENTAUR R/B 3.9 04:29:07 10° SSE 04:32:50 22° ESE 04:36:46 10° ENE
Meteor 1-4 Rocket 3.3 04:30:30 10° NNW 04:33:57 37° W 04:37:27 10° SSW
Cosmos 1680 Rocket 3.5 04:30:07 10° NNW 04:35:23 86° WSW 04:40:35 10° SSE
SL-16 R/B 2.3 04:29:48 10° NW 04:35:23 58° WSW 04:40:55 10° S
USA 161 3.2 04:36:57 11° WSW 04:37:53 13° W 04:39:04 10° WNW
Thor Agena Rocket 4.0 04:35:27 10° SSE 04:40:42 70° ENE 04:46:00 10° NNW
Cosmos 1470 Rocket 4.1 04:36:29 10° SSW 04:40:45 44° WNW 04:45:01 10° N
Lacrosse 5 2.7 04:37:08 10° WNW 04:41:22 27° SW 04:45:34 10° S
USA 129 2.4 04:41:53 14° W 04:41:56 14° W 04:42:42 10° WNW
Cosmos 1271 Rocket 3.6 04:38:41 10° NNW 04:42:05 30° W 04:45:25 10° SSW
IRS-1D 3.7 04:38:38 10° N 04:44:00 73° WNW 04:49:18 10° SSW
Cosmos 1933 Rocket 4.2 04:41:41 10° SW 04:45:48 40° WNW 04:49:59 10° N
Cosmos 1777 Rocket 4.1 04:40:38 10° SSW 04:45:56 88° WNW 04:51:17 10° NNE
CRYOSAT 2 4.4 04:43:25 10° N 04:48:20 78° W 04:53:12 10° SSW
UNK 4.1 04:44:46 10° S 04:49:09 45° W 04:53:34 10° NNW
ARIANE 5 R/B 2.8 04:45:04 10° N 04:50:08 58° WNW 04:55:06 10° SSW
Cosmos 2322 Rocket 2.6 04:45:18 10° NW 04:50:35 42° WSW 04:55:49 10° S
CZ-2C R/B 3.7 04:47:20 10° SSE 04:51:49 82° WSW 04:56:24 10° NNW
CENTAUR R/B 2.9 04:45:34 10° WSW 04:51:51 65° NW 04:59:01 10° NE
CZ-2D R/B 3.8 04:49:08 10° NNE 04:53:25 69° ESE 04:57:31 10° S
Cosmos 1709 Rocket 4.3 04:47:55 10° SSW 04:54:05 54° WNW 05:00:15 10° N
Okean O Rocket 2.2 04:49:54 10° NNE 04:54:19 59° E 04:58:41 10° S
Cosmos 773 Rocket 4.5 04:49:44 10° NW 04:54:30 39° WSW 04:59:14 10° S
Cosmos 1626 2.7 04:51:17 10° SSW 04:54:51 42° WNW 04:58:27 10° N
Meteor 1-26 Rocket 4.4 04:49:48 10° N 04:55:26 82° ENE 05:00:58 10° SSE
